RYR8BW LGKR-EPKK

Flight info

Callsign RYR8BW
Flight time 1h 43m
Altitude 36000
Route NIKRO DCT OVVER DCT ALELU DCT VAL DCT PARAK DCT LITKU DCT REDSI DCT MEBAN MEBA5G
Aircraft B738/M-SDE2E3FGHIRWXY/LB1

Departure

Time 2026-05-05 18:30
Airport Corfu Ioannis Kapodistrias International Airport (LGKR)

Arrival

Time 2026-05-05 20:14
Airport Kraków John Paul II International Airport (EPKK)
Time Latitude Longitude Altitude Speed Heading
2026-05-05 17:58 39.60742 19.91338 17 ft 0 kts 79°
2026-05-05 18:23 39.60740 19.91326 19 ft 4 kts 80°
2026-05-05 18:23 39.60736 19.91291 17 ft 4 kts 82°
2026-05-05 18:23 39.60732 19.91256 18 ft 4 kts 79°
2026-05-05 18:23 39.60725 19.91224 21 ft 4 kts 54°
2026-05-05 18:24 39.60713 19.91211 18 ft 0 kts 353°
2026-05-05 18:26 39.60716 19.91211 17 ft 2 kts 353°
2026-05-05 18:26 39.60739 19.91207 17 ft 5 kts 352°
2026-05-05 18:26 39.60780 19.91197 17 ft 8 kts 348°
2026-05-05 18:27 39.60840 19.91181 17 ft 10 kts 348°
2026-05-05 18:27 39.60913 19.91162 18 ft 12 kts 348°
2026-05-05 18:27 39.60993 19.91142 19 ft 12 kts 348°
2026-05-05 18:27 39.61072 19.91120 18 ft 12 kts 347°
2026-05-05 18:28 39.61197 19.91078 19 ft 6 kts 328°
2026-05-05 18:28 39.61213 19.91050 19 ft 6 kts 294°
2026-05-05 18:28 39.61221 19.90998 20 ft 6 kts 269°
2026-05-05 18:29 39.61210 19.90953 21 ft 4 kts 216°
2026-05-05 18:29 39.61189 19.90955 20 ft 1 kts 169°
2026-05-05 18:29 39.61172 19.90959 21 ft 8 kts 169°
2026-05-05 18:29 39.60885 19.91034 19 ft 80 kts 168°
2026-05-05 18:30 39.60109 19.91234 20 ft 145 kts 169°
2026-05-05 18:30 39.59006 19.91547 373 ft 170 kts 168°
2026-05-05 18:30 39.57853 19.92013 1079 ft 178 kts 148°
2026-05-05 18:30 39.57116 19.93297 1822 ft 182 kts 111°
2026-05-05 18:31 39.56561 19.94769 2554 ft 184 kts 131°
2026-05-05 18:31 39.55631 19.95873 3368 ft 180 kts 143°
2026-05-05 18:31 39.54656 19.96873 4084 ft 182 kts 143°
2026-05-05 18:31 39.53755 19.98179 4332 ft 212 kts 112°
2026-05-05 18:32 39.53702 20.00146 4533 ft 233 kts 73°
2026-05-05 18:32 39.54583 20.01969 4825 ft 249 kts 39°
2026-05-05 18:32 39.56195 20.02963 5112 ft 268 kts
2026-05-05 18:32 39.58071 20.03174 5802 ft 274 kts
2026-05-05 18:33 39.59989 20.03179 6586 ft 277 kts 359°
2026-05-05 18:33 39.61927 20.03140 7345 ft 279 kts 358°
2026-05-05 18:33 39.63873 20.03091 8146 ft 280 kts 358°
2026-05-05 18:33 39.65831 20.03041 8930 ft 283 kts 358°
2026-05-05 18:34 39.67809 20.02993 9707 ft 286 kts 358°
2026-05-05 18:34 39.69806 20.02948 10405 ft 290 kts 358°
2026-05-05 18:34 39.71903 20.02901 10613 ft 313 kts 358°
2026-05-05 18:34 39.74155 20.02852 10849 ft 333 kts 358°
2026-05-05 18:35 39.76503 20.02803 11362 ft 341 kts 358°
2026-05-05 18:35 39.78888 20.02756 12051 ft 344 kts 358°
2026-05-05 18:35 39.81291 20.02710 12796 ft 347 kts 358°
2026-05-05 18:35 39.83717 20.02664 13535 ft 350 kts 357°
2026-05-05 18:36 39.86168 20.02617 14213 ft 355 kts 357°
2026-05-05 18:36 39.88644 20.02569 14941 ft 356 kts 357°
2026-05-05 18:36 39.91126 20.02522 15713 ft 357 kts 357°
2026-05-05 18:36 39.93617 20.02474 16450 ft 359 kts 356°
2026-05-05 18:37 39.96120 20.02426 17167 ft 361 kts 356°
2026-05-05 18:37 39.98644 20.02377 17879 ft 364 kts 356°
2026-05-05 18:37 40.01126 20.02329 18557 ft 366 kts 356°
2026-05-05 18:37 40.03690 20.02279 19141 ft 370 kts 356°
2026-05-05 18:38 40.06287 20.02228 19655 ft 375 kts 356°
2026-05-05 18:38 40.08897 20.02178 20383 ft 375 kts 356°
2026-05-05 18:38 40.11509 20.02128 21023 ft 376 kts 355°
2026-05-05 18:38 40.14135 20.02077 21569 ft 379 kts 355°
2026-05-05 18:39 40.16788 20.02026 22091 ft 383 kts 355°
2026-05-05 18:39 40.19458 20.01974 22623 ft 385 kts 355°
2026-05-05 18:39 40.22147 20.01922 23164 ft 388 kts 355°
2026-05-05 18:39 40.24850 20.01869 23698 ft 390 kts 355°
2026-05-05 18:40 40.27569 20.01817 24160 ft 391 kts 355°
2026-05-05 18:40 40.30292 20.01767 24652 ft 392 kts 355°
2026-05-05 18:40 40.33028 20.01714 25086 ft 395 kts 355°
2026-05-05 18:40 40.35784 20.01659 25496 ft 397 kts 354°
2026-05-05 18:41 40.38555 20.01604 25928 ft 399 kts 354°
2026-05-05 18:41 40.41341 20.01549 26372 ft 401 kts 354°
2026-05-05 18:41 40.44138 20.01495 26779 ft 404 kts 354°
2026-05-05 18:41 40.46964 20.01440 27104 ft 407 kts 354°
2026-05-05 18:42 40.49803 20.01385 27519 ft 409 kts 354°
2026-05-05 18:42 40.52653 20.01329 27895 ft 411 kts 353°
2026-05-05 18:42 40.55513 20.01259 28298 ft 411 kts 352°
2026-05-05 18:42 40.58377 20.01080 28686 ft 412 kts 351°
2026-05-05 18:43 40.61245 20.00836 29037 ft 414 kts 350°
2026-05-05 18:43 40.64126 20.00569 29402 ft 416 kts 350°
2026-05-05 18:43 40.67023 20.00301 29712 ft 419 kts 350°
2026-05-05 18:43 40.69941 20.00040 30073 ft 420 kts 350°
2026-05-05 18:44 40.72853 19.99790 30533 ft 418 kts 350°
2026-05-05 18:44 40.75704 19.99553 31008 ft 415 kts 350°
2026-05-05 18:44 40.78572 19.99318 31471 ft 412 kts 350°
2026-05-05 18:44 40.81430 19.99084 31877 ft 411 kts 350°
2026-05-05 18:45 40.84281 19.98850 32234 ft 410 kts 350°
2026-05-05 18:45 40.87128 19.98617 32633 ft 409 kts 350°
2026-05-05 18:45 40.89964 19.98384 33029 ft 408 kts 350°
2026-05-05 18:45 40.92791 19.98153 33448 ft 406 kts 350°
2026-05-05 18:46 40.95603 19.97922 33830 ft 404 kts 350°
2026-05-05 18:46 40.98409 19.97691 34174 ft 404 kts 350°
2026-05-05 18:46 41.01197 19.97462 34445 ft 403 kts 350°
2026-05-05 18:46 41.04001 19.97230 34690 ft 404 kts 350°
2026-05-05 18:47 41.06808 19.96997 34917 ft 405 kts 350°
2026-05-05 18:47 41.09614 19.96765 35209 ft 404 kts 350°
2026-05-05 18:47 41.12416 19.96534 35479 ft 403 kts 350°
2026-05-05 18:47 41.15223 19.96302 35711 ft 404 kts 350°
2026-05-05 18:48 41.18026 19.96070 35947 ft 404 kts 351°
2026-05-05 18:48 41.20832 19.95837 36112 ft 405 kts 351°
2026-05-05 18:48 41.26497 19.95365 36107 ft 409 kts 351°
2026-05-05 18:49 41.32148 19.94900 36115 ft 403 kts 351°
2026-05-05 18:49 41.37739 19.94439 36111 ft 401 kts 351°
2026-05-05 18:50 41.43304 19.93972 36106 ft 401 kts 351°
2026-05-05 18:50 41.48868 19.93505 36066 ft 400 kts 351°
2026-05-05 18:51 41.54417 19.93040 36115 ft 400 kts 351°
2026-05-05 18:51 41.59990 19.92570 36103 ft 402 kts 351°
2026-05-05 18:52 41.65593 19.92100 36109 ft 405 kts 351°
2026-05-05 18:52 41.71233 19.91627 36109 ft 408 kts 351°
2026-05-05 18:53 41.76909 19.91149 36108 ft 410 kts 351°
2026-05-05 18:53 41.82611 19.90669 36106 ft 411 kts 351°
2026-05-05 18:54 41.88330 19.90186 36115 ft 412 kts 351°
2026-05-05 18:54 41.94009 19.89707 36104 ft 412 kts 351°
2026-05-05 18:55 41.99724 19.89222 36084 ft 411 kts 351°
2026-05-05 18:55 42.05414 19.88739 36084 ft 410 kts 351°
2026-05-05 18:56 42.11101 19.88255 36089 ft 408 kts 351°
2026-05-05 18:56 42.16757 19.87773 36096 ft 407 kts 351°
2026-05-05 18:57 42.22399 19.87292 36084 ft 406 kts 351°
2026-05-05 18:57 42.28031 19.86815 36093 ft 406 kts 351°
2026-05-05 18:58 42.33654 19.86327 36090 ft 404 kts 351°
2026-05-05 18:58 42.39261 19.85844 36083 ft 403 kts 351°
2026-05-05 18:59 42.44873 19.85361 36090 ft 406 kts 351°
2026-05-05 18:59 42.50521 19.85024 36107 ft 408 kts 354°
2026-05-05 19:00 42.56226 19.85104 36088 ft 411 kts 355°
2026-05-05 19:00 42.61950 19.85238 36087 ft 412 kts 355°
2026-05-05 19:01 42.67679 19.85342 36094 ft 411 kts 355°
2026-05-05 19:01 42.73405 19.85424 36074 ft 412 kts 355°
2026-05-05 19:02 42.79137 19.85498 36070 ft 412 kts 355°
2026-05-05 19:02 42.84875 19.85570 36061 ft 412 kts 355°
2026-05-05 19:03 42.90607 19.85644 36062 ft 411 kts 355°
2026-05-05 19:03 42.96334 19.85716 36056 ft 412 kts 355°
2026-05-05 19:04 43.02021 19.85788 36044 ft 412 kts 355°
2026-05-05 19:04 43.07757 19.85862 36052 ft 412 kts 355°
2026-05-05 19:05 43.13496 19.85937 36045 ft 412 kts 355°
2026-05-05 19:05 43.19235 19.86011 36040 ft 413 kts 355°
2026-05-05 19:06 43.24977 19.86085 36055 ft 412 kts 355°
2026-05-05 19:06 43.30713 19.86159 36048 ft 412 kts 355°
2026-05-05 19:07 43.36453 19.86234 36030 ft 412 kts 355°
2026-05-05 19:07 43.42189 19.86308 36031 ft 412 kts 355°
2026-05-05 19:08 43.47931 19.86382 36031 ft 413 kts 355°
2026-05-05 19:08 43.53691 19.86457 36035 ft 414 kts 355°
2026-05-05 19:09 43.59463 19.86533 36032 ft 415 kts 356°
2026-05-05 19:09 43.65253 19.86609 36025 ft 417 kts 356°
2026-05-05 19:10 43.71022 19.86685 36018 ft 418 kts 356°
2026-05-05 19:10 43.76836 19.86761 36019 ft 418 kts 356°
2026-05-05 19:11 43.82662 19.86838 36019 ft 419 kts 356°
2026-05-05 19:11 43.88501 19.86915 36010 ft 420 kts 356°
2026-05-05 19:12 43.94349 19.86993 36003 ft 420 kts 356°
2026-05-05 19:12 44.00186 19.87070 36010 ft 420 kts 356°
2026-05-05 19:13 44.06039 19.87147 36005 ft 421 kts 356°
2026-05-05 19:13 44.11897 19.87226 35996 ft 421 kts 356°
2026-05-05 19:14 44.17766 19.87305 35984 ft 422 kts 356°
2026-05-05 19:14 44.23651 19.87382 35998 ft 423 kts 356°
2026-05-05 19:15 44.29542 19.87462 35986 ft 424 kts 357°
2026-05-05 19:15 44.35403 19.87715 35984 ft 425 kts
2026-05-05 19:16 44.41310 19.88412 35981 ft 426 kts
2026-05-05 19:16 44.47221 19.89169 35980 ft 427 kts
2026-05-05 19:17 44.53139 19.89891 35969 ft 427 kts
2026-05-05 19:17 44.59061 19.90587 35970 ft 427 kts
2026-05-05 19:18 44.64994 19.91277 35961 ft 428 kts
2026-05-05 19:18 44.70931 19.91969 35961 ft 428 kts
2026-05-05 19:19 44.75871 19.92546 35958 ft 429 kts
2026-05-05 19:19 44.81817 19.93242 35954 ft 429 kts
2026-05-05 19:20 44.87774 19.93941 35952 ft 430 kts
2026-05-05 19:20 44.93735 19.94642 35949 ft 430 kts
2026-05-05 19:21 44.99698 19.95345 35948 ft 430 kts
2026-05-05 19:21 45.05652 19.96048 35957 ft 430 kts
2026-05-05 19:22 45.11619 19.96754 35956 ft 430 kts
2026-05-05 19:22 45.17588 19.97462 35958 ft 431 kts
2026-05-05 19:23 45.23567 19.98172 35955 ft 431 kts
2026-05-05 19:23 45.29551 19.98884 35954 ft 432 kts
2026-05-05 19:24 45.35540 19.99599 35957 ft 432 kts
2026-05-05 19:24 45.41533 20.00315 35956 ft 432 kts
2026-05-05 19:25 45.47534 20.01035 35946 ft 433 kts
2026-05-05 19:25 45.53538 20.01756 35944 ft 433 kts
2026-05-05 19:26 45.59547 20.02479 35947 ft 433 kts
2026-05-05 19:26 45.65556 20.03204 35946 ft 433 kts
2026-05-05 19:27 45.71565 20.03930 35938 ft 433 kts
2026-05-05 19:27 45.77571 20.04658 35939 ft 433 kts
2026-05-05 19:28 45.83570 20.05386 35946 ft 433 kts
2026-05-05 19:28 45.89573 20.06116 35937 ft 433 kts
2026-05-05 19:29 45.95528 20.06842 35934 ft 432 kts
2026-05-05 19:29 46.01501 20.07572 35935 ft 432 kts
2026-05-05 19:30 46.07495 20.08306 35933 ft 432 kts
2026-05-05 19:30 46.13485 20.09041 35931 ft 432 kts
2026-05-05 19:31 46.19444 20.08882 35935 ft 427 kts 349°
2026-05-05 19:31 46.25301 20.07482 35939 ft 426 kts 348°
2026-05-05 19:32 46.31149 20.06042 35924 ft 426 kts 348°
2026-05-05 19:32 46.37004 20.04646 35926 ft 426 kts 348°
2026-05-05 19:33 46.42856 20.03278 35923 ft 426 kts 348°
2026-05-05 19:33 46.48707 20.01917 35924 ft 426 kts 349°
2026-05-05 19:34 46.54555 20.00554 35921 ft 426 kts 349°
2026-05-05 19:35 46.63324 19.98503 35921 ft 425 kts 349°
2026-05-05 19:35 46.69164 19.97133 35921 ft 425 kts 349°
2026-05-05 19:36 46.75007 19.95760 35928 ft 425 kts 349°
2026-05-05 19:36 46.80851 19.94383 35933 ft 425 kts 349°
2026-05-05 19:37 46.86693 19.93003 35933 ft 426 kts 349°
2026-05-05 19:37 46.92543 19.91619 35944 ft 426 kts 349°
2026-05-05 19:38 46.98357 19.90240 35937 ft 426 kts 349°
2026-05-05 19:38 47.04205 19.88850 35935 ft 427 kts 349°
2026-05-05 19:39 47.10066 19.87454 35926 ft 427 kts 349°
2026-05-05 19:39 47.15934 19.86053 35913 ft 427 kts 349°
2026-05-05 19:40 47.21804 19.84649 35912 ft 428 kts 349°
2026-05-05 19:40 47.27677 19.83240 35913 ft 428 kts 349°
2026-05-05 19:41 47.33556 19.81827 35913 ft 428 kts 348°
2026-05-05 19:41 47.39437 19.80410 35905 ft 428 kts 349°
2026-05-05 19:42 47.45324 19.78989 35902 ft 429 kts 349°
2026-05-05 19:42 47.51216 19.77563 35898 ft 429 kts 349°
2026-05-05 19:43 47.57109 19.76134 35895 ft 429 kts 349°
2026-05-05 19:43 47.63002 19.74701 35897 ft 429 kts 349°
2026-05-05 19:44 47.68902 19.73264 35893 ft 430 kts 349°
2026-05-05 19:44 47.74801 19.71823 35893 ft 430 kts 349°
2026-05-05 19:45 47.80701 19.70379 35892 ft 430 kts 349°
2026-05-05 19:45 47.86610 19.68929 35895 ft 431 kts 348°
2026-05-05 19:46 47.92521 19.67475 35888 ft 430 kts 348°
2026-05-05 19:46 47.98429 19.66019 35891 ft 430 kts 348°
2026-05-05 19:47 48.04276 19.64575 35898 ft 430 kts 348°
2026-05-05 19:47 48.07224 19.63845 35670 ft 429 kts 348°
2026-05-05 19:47 48.10148 19.63122 35405 ft 421 kts 348°
2026-05-05 19:47 48.13020 19.62410 35002 ft 417 kts 348°
2026-05-05 19:48 48.15871 19.61701 34640 ft 413 kts 348°
2026-05-05 19:48 48.18698 19.60998 34262 ft 410 kts 348°
2026-05-05 19:48 48.21501 19.60301 33894 ft 407 kts 348°
2026-05-05 19:48 48.24306 19.59822 33476 ft 406 kts 356°
2026-05-05 19:49 48.27111 19.59869 33163 ft 401 kts 359°
2026-05-05 19:49 48.28951 19.59957 32890 ft 400 kts 359°
2026-05-05 19:49 48.32648 19.60169 32399 ft 395 kts 359°
2026-05-05 19:49 48.35385 19.60321 32033 ft 392 kts 359°
2026-05-05 19:50 48.38100 19.60458 31673 ft 389 kts 359°
2026-05-05 19:50 48.40793 19.60583 31320 ft 386 kts 359°
2026-05-05 19:50 48.43469 19.60698 30965 ft 383 kts 358°
2026-05-05 19:50 48.46123 19.60807 30613 ft 381 kts 358°
2026-05-05 19:51 48.48763 19.60913 30262 ft 378 kts 358°
2026-05-05 19:51 48.51394 19.61017 29778 ft 380 kts 358°
2026-05-05 19:51 48.54043 19.61120 29137 ft 382 kts 358°
2026-05-05 19:51 48.56718 19.61222 28427 ft 387 kts 358°
2026-05-05 19:52 48.59424 19.61324 27711 ft 391 kts 359°
2026-05-05 19:52 48.62168 19.61428 26971 ft 397 kts 359°
2026-05-05 19:52 48.64913 19.61535 26618 ft 392 kts 359°
2026-05-05 19:52 48.67629 19.61642 26222 ft 389 kts 359°
2026-05-05 19:53 48.70317 19.61747 25844 ft 385 kts 359°
2026-05-05 19:53 48.72949 19.61850 25468 ft 382 kts 359°
2026-05-05 19:53 48.75593 19.61953 25098 ft 379 kts 359°
2026-05-05 19:53 48.78218 19.62055 24731 ft 376 kts 359°
2026-05-05 19:54 48.80821 19.62156 24358 ft 373 kts 359°
2026-05-05 19:54 48.83412 19.62257 23992 ft 371 kts 359°
2026-05-05 19:54 48.85988 19.62356 23618 ft 370 kts 359°
2026-05-05 19:54 48.88553 19.62457 23200 ft 368 kts 359°
2026-05-05 19:55 48.91106 19.62560 22808 ft 365 kts 359°
2026-05-05 19:55 48.93639 19.62659 22419 ft 363 kts 359°
2026-05-05 19:55 48.96153 19.62753 22048 ft 360 kts 359°
2026-05-05 19:55 48.98648 19.62847 21693 ft 358 kts 359°
2026-05-05 19:56 49.01108 19.62942 21321 ft 355 kts 359°
2026-05-05 19:56 49.03571 19.63040 20971 ft 353 kts 359°
2026-05-05 19:56 49.06021 19.63137 20611 ft 351 kts 359°
2026-05-05 19:56 49.08453 19.63232 20273 ft 349 kts 360°
2026-05-05 19:57 49.10872 19.63328 19915 ft 347 kts
2026-05-05 19:57 49.12468 19.63391 19688 ft 346 kts 360°
2026-05-05 19:57 49.15685 19.63518 19211 ft 345 kts 359°
2026-05-05 19:57 49.18083 19.63614 18874 ft 344 kts
2026-05-05 19:58 49.20471 19.63708 18517 ft 343 kts
2026-05-05 19:58 49.22854 19.63802 18154 ft 342 kts
2026-05-05 19:58 49.25227 19.63895 17790 ft 340 kts
2026-05-05 19:58 49.27586 19.63988 17426 ft 338 kts
2026-05-05 19:59 49.29931 19.64081 17059 ft 336 kts
2026-05-05 19:59 49.32263 19.64174 16718 ft 334 kts
2026-05-05 19:59 49.34580 19.64266 16373 ft 332 kts
2026-05-05 19:59 49.36883 19.64357 16048 ft 330 kts
2026-05-05 20:00 49.39169 19.64479 15718 ft 328 kts
2026-05-05 20:00 49.41361 19.65376 15335 ft 329 kts 23°
2026-05-05 20:00 49.43458 19.66890 14711 ft 337 kts 26°
2026-05-05 20:00 49.45590 19.68537 14005 ft 348 kts 27°
2026-05-05 20:01 49.47768 19.70230 13452 ft 353 kts 27°
2026-05-05 20:01 49.49973 19.71926 12874 ft 356 kts 26°
2026-05-05 20:01 49.52204 19.73620 12313 ft 359 kts 26°
2026-05-05 20:01 49.54451 19.75310 11773 ft 360 kts 26°
2026-05-05 20:02 49.56685 19.76979 11519 ft 352 kts 26°
2026-05-05 20:02 49.58871 19.78605 11266 ft 346 kts 26°
2026-05-05 20:02 49.61020 19.80203 11011 ft 340 kts 25°
2026-05-05 20:02 49.63163 19.81795 10451 ft 345 kts 25°
2026-05-05 20:03 49.65333 19.83409 10055 ft 344 kts 26°
2026-05-05 20:03 49.67458 19.84991 9921 ft 334 kts 25°
2026-05-05 20:03 49.69518 19.86525 9832 ft 323 kts 25°
2026-05-05 20:03 49.71489 19.87994 9736 ft 314 kts 25°
2026-05-05 20:04 49.73463 19.89467 9537 ft 309 kts 25°
2026-05-05 20:04 49.75393 19.90910 9244 ft 307 kts 25°
2026-05-05 20:04 49.77314 19.92348 8954 ft 306 kts 25°
2026-05-05 20:04 49.79225 19.93776 8640 ft 303 kts 25°
2026-05-05 20:05 49.81093 19.95173 8329 ft 302 kts 25°
2026-05-05 20:05 49.82983 19.96590 8016 ft 301 kts 25°
2026-05-05 20:05 49.84889 19.98021 7724 ft 300 kts 25°
2026-05-05 20:05 49.86742 19.99412 7420 ft 300 kts 24°
2026-05-05 20:06 49.88622 20.00823 7077 ft 300 kts 25°
2026-05-05 20:06 49.90499 20.02234 6788 ft 299 kts 25°
2026-05-05 20:06 49.92371 20.03644 6477 ft 299 kts 24°
2026-05-05 20:06 49.94237 20.05052 6172 ft 298 kts 24°
2026-05-05 20:07 49.96096 20.06452 5895 ft 296 kts 24°
2026-05-05 20:07 49.97945 20.07846 5641 ft 293 kts 24°
2026-05-05 20:07 49.99751 20.09212 5534 ft 285 kts 24°
2026-05-05 20:07 50.01502 20.10536 5408 ft 277 kts 24°
2026-05-05 20:08 50.02675 20.11363 5319 ft 271 kts 16°
2026-05-05 20:08 50.04486 20.11602 5175 ft 256 kts 347°
2026-05-05 20:08 50.06218 20.11114 4963 ft 251 kts 342°
2026-05-05 20:08 50.07894 20.10539 4743 ft 249 kts 342°
2026-05-05 20:09 50.09580 20.09961 4526 ft 246 kts 341°
2026-05-05 20:09 50.11104 20.09028 4276 ft 226 kts 312°
2026-05-05 20:09 50.11805 20.07096 4075 ft 193 kts 267°
2026-05-05 20:09 50.11560 20.05210 3951 ft 173 kts 248°
2026-05-05 20:10 50.11269 20.03415 3741 ft 168 kts 252°
2026-05-05 20:10 50.11022 20.01671 3513 ft 161 kts 252°
2026-05-05 20:10 50.10784 19.99986 3324 ft 159 kts 252°
2026-05-05 20:10 50.10548 19.98320 3110 ft 156 kts 252°
2026-05-05 20:11 50.10317 19.96680 2926 ft 157 kts 251°
2026-05-05 20:11 50.10077 19.94984 2721 ft 163 kts 252°
2026-05-05 20:11 50.09834 19.93247 2491 ft 164 kts 252°
2026-05-05 20:11 50.09591 19.91513 2276 ft 163 kts 252°
2026-05-05 20:12 50.09354 19.89822 2060 ft 158 kts 254°
2026-05-05 20:12 50.09127 19.88198 1893 ft 153 kts 255°
2026-05-05 20:12 50.08899 19.86566 1671 ft 154 kts 254°
2026-05-05 20:12 50.08671 19.84933 1444 ft 154 kts 255°
2026-05-05 20:13 50.08447 19.83331 1249 ft 151 kts 257°
2026-05-05 20:13 50.08226 19.81719 1052 ft 153 kts 258°
2026-05-05 20:13 50.08002 19.80106 861 ft 152 kts 257°
2026-05-05 20:13 50.07784 19.78566 801 ft 127 kts 258°
2026-05-05 20:14 50.07647 19.77559 798 ft 64 kts 258°
2026-05-05 20:14 50.07564 19.76976 801 ft 40 kts 257°
2026-05-05 20:14 50.07537 19.76848 801 ft 7 kts 217°
2026-05-05 20:14 50.07487 19.76851 801 ft 9 kts 168°
2026-05-05 20:15 50.07406 19.76873 799 ft 13 kts 170°
2026-05-05 20:15 50.07330 19.76898 799 ft 10 kts 163°
2026-05-05 20:15 50.07310 19.76985 799 ft 10 kts 77°
2026-05-05 20:15 50.07326 19.77100 799 ft 12 kts 77°
2026-05-05 20:16 50.07347 19.77249 799 ft 16 kts 77°
2026-05-05 20:16 50.07373 19.77433 799 ft 19 kts 78°
2026-05-05 20:16 50.07403 19.77648 799 ft 21 kts 78°
2026-05-05 20:16 50.07434 19.77872 799 ft 21 kts 78°
2026-05-05 20:17 50.07464 19.78089 799 ft 20 kts 78°
2026-05-05 20:17 50.07493 19.78299 799 ft 20 kts 78°
2026-05-05 20:17 50.07521 19.78504 799 ft 19 kts 78°
2026-05-05 20:17 50.07551 19.78721 799 ft 21 kts 78°
2026-05-05 20:18 50.07582 19.78942 799 ft 21 kts 78°
2026-05-05 20:18 50.07611 19.79157 799 ft 20 kts 78°
2026-05-05 20:18 50.07640 19.79364 799 ft 19 kts 78°
2026-05-05 20:18 50.07667 19.79561 799 ft 17 kts 78°
2026-05-05 20:19 50.07671 19.79679 799 ft 9 kts 121°
2026-05-05 20:19 50.07614 19.79712 799 ft 9 kts 169°
2026-05-05 20:19 50.07546 19.79733 799 ft 11 kts 168°
2026-05-05 20:19 50.07467 19.79758 799 ft 12 kts 168°
2026-05-05 20:20 50.07392 19.79785 799 ft 9 kts 160°
2026-05-05 20:20 50.07374 19.79849 799 ft 6 kts 87°
2026-05-05 20:20 50.07357 19.79905 799 ft 6 kts 155°
2026-05-05 20:20 50.07318 19.79918 799 ft 2 kts 167°
2026-05-05 20:21 50.07315 19.79919 799 ft 0 kts 167°